CAPE
997 1242 2363 1860 1780 1914 2011 2219 2819 2815 2047 2026 1901 1711 1716 1720 1668 1684 1552 1499 1514 1544 1661 2191 2336 2078 1891 1909 1952 2431 2929 3025 2622 3227 3292 3173 3034 3151 3275 3215 2858 1494 2155
992 1178 2543 2546 2228 2602 2110 2268 2957 3207 2295 2019 2053 1953 1788 1718 1803 1738 1869 1613 1389 1394 1485 1978 2025 2002 1881 1746 1942 1876 2468 2953 2977 2896 2741 2818 2875 2926 2467 2062 2682 1971 2114
922 1263 1775 2922 2671 2522 2592 2294 2300 2791 2327 2512 2147 1810 1622 1594 1693 1838 1600 2038 1928 1821 1734 1391 1289 1458 1492 1693 1829 1908 787 2199 2985 2888 2734 2061 2486 2957 2361 2307 2057 2103 2143
855 1015 892 2845 2753 2397 2494 2395 2490 2352 2183 2312 2199 2017 1941 1962 1847 1639 1559 1387 1423 1486 1544 1536 1234 1239 1264 1285 1402 1053 188 1418 2000 2747 1993 1531 2057 2589 2841 2181 2071 2279 2383
842 646 1538 2764 1861 2053 2089 2068 1995 2119 2193 2078 2018 1825 1613 1471 1386 1296 1327 1336 1445 1317 1327 1360 1439 1430 1522 1413 1350 1462 125 1180 1519 1053 1772 1934 1925 2694 2863 2332 1848 2481 2848
816 719 2315 1849 1543 1863 1939 1920 1792 1726 1617 1637 1583 1495 1420 1327 1304 1361 1151 1207 982 840 778 819 1070 1314 1415 1375 1315 1306 596 1550 1566 1256 1378 1883 2067 2683 2793 2655 1893 2912 2936
795 927 1564 2803 2522 2255 2016 1874 1939 1841 1769 1685 1664 1589 1359 1373 1394 1457 1460 1060 831 970 961 950 861 1252 1378 1313 1385 1276 1510 1654 632 889 1415 1100 2099 2768 2615 2752 2533 2580 2874
779 856 1205 2303 2712 2326 1782 1977 1943 1808 1789 1911 1812 1798 1748 1533 1562 1399 1384 1182 1183 1191 1100 1255 1260 1359 1252 1269 1363 1280 1408 1584 873 874 544 717 1519 1125 1086 2029 2746 2335 2731
834 1094 1403 1438 1789 2054 2168 2186 2003 2055 2108 1929 1786 1901 1722 1518 1551 1336 1101 1548 822 521 648 469 1064 1487 1276 1134 1381 1334 908 1258 881 624 602 429 1086 1089 806 817 2236 2705 2072
1140 1282 1509 1559 1669 1762 1847 2257 2177 2116 2087 1786 1960 1810 1571 1594 1569 1510 1193 1131 1224 1017 518 401 516 1046 1352 1110 1127 1071 1120 1117 1014 869 556 666 489 513 865 766 1713 2430 2498
1086 1287 1481 1568 1412 1929 1909 2100 2200 2039 2065 1755 1939 1885 1794 963 1460 850 1214 1551 826 323 355 549 641 907 1150 1185 1126 1098 987 1635 1259 817 757 137 70 323 833 1075 1258 2176 2615
1323 1087 860 942 1544 1573 1126 1945 1281 1378 904 1452 1252 1464 1191 624 445 840 1362 1502 671 134 47 127 335 421 846 948 1445 1142 1058 1061 874 516 798 372 167 542 1304 1655 1811 2468 2594
952 963 715 891 1259 1232 711 818 1290 1387 718 852 1541 1550 1596 680 673 620 977 1226 1105 543 819 364 698 265 628 791 669 688 961 1043 763 591 627 1140 933 1090 1504 1976 2141 2434 2664
805 747 613 1058 1314 925 603 916 947 948 860 758 967 1202 756 1127 1337 2423 1489 1178 1742 1531 1350 970 1218 851 795 909 837 693 656 849 675 531 678 1032 1736 1687 2072 2236 2589 2641 2499
835 1001 940 1157 1386 1267 1539 862 1095 967 555 523 760 689 738 945 1405 1343 2511 1870 1926 1037 1452 1756 1576 1344 1112 990 910 966 714 622 610 470 574 1326 1651 2223 2440 2322 2493 2503 2555
922 1260 1321 1262 1447 1420 1753 1287 2296 1599 925 787 630 236 658 1187 1366 1956 2057 1667 1852 1594 1080 1352 1693 1248 1225 1079 1050 1167 909 708 763 831 525 1074 1725 2364 2462 2291 2586 2840 2892
1142 1026 1399 1421 1341 1473 1508 1529 2042 1536 1139 1026 579 644 1090 1505 1525 1913 2242 2427 1550 1744 2264 1962 1763 1671 1457 1063 1024 758 619 689 791 1174 1110 1081 1276 2026 2225 2242 2319 2487 2363
1225 1310 1490 1180 1114 1559 1376 1473 2498 2329 1072 801 473 741 1400 1608 1650 2088 1955 1555 1142 1825 1160 1522 1375 2646 1713 1347 1145 1139 647 590 789 1076 1365 1354 1256 1300 2130 2722 2846 2778 2053
1412 1517 1684 1549 1280 1486 1720 2217 2402 1837 1659 888 702 997 1295 1559 1459 1904 1396 1296 1684 1657 1404 1443 1457 1798 1702 2021 1170 1165 1145 1026 819 570 880 1440 1201 1204 1314 2220 2725 2810 1934
1437 1774 1957 1741 1728 1996 2899 2079 2691 1449 2325 1883 714 904 1177 1466 1320 2020 1208 1357 1249 1148 922 1306 1235 1255 1251 1562 1146 953 1078 1001 710 576 850 1200 1073 1420 1190 1484 1782 1478 2253
1516 1832 2155 2190 2295 2416 1767 1842 2379 1006 2366 1836 1062 894 1328 1613 1415 1894 1101 1470 1106 975 1090 1792 1847 1036 1348 1216 1827 1819 1536 1276 697 664 760 1013 1195 1501 1349 1658 1937 1614 1776
1612 1856 2270 2417 2381 2698 2328 2131 1469 1452 1637 1465 910 1119 1347 1544 1765 1970 1638 1407 1806 1615 2121 2290 2252 1554 1717 1443 2126 2024 1739 1048 1193 1065 722 829 1109 1315 1360 1544 1564 1723 1831
1665 1970 2224 2513 2558 2630 2130 2706 2582 1429 2042 1906 1104 1231 1293 1244 1406 1811 1912 1850 2092 2078 1408 1904 1634 1835 1674 1530 1615 1386 1423 1087 1053 1239 1461 1513 1217 1308 1296 1373 1745 1904 2037
1553 1787 2225 2600 2694 1895 2378 2188 2150 2398 1365 1224 996 718 966 1108 1405 1751 2088 2210 2511 1627 1933 1298 1557 1927 2131 2503 1227 942 1021 1251 1982 1105 1265 1318 1251 1368 1520 1452 1650 1987 1915
1277 1762 2220 2716 2913 2693 2654 2470 2726 1847 1092 1151 1271 1946 1589 1714 1808 2093 2269 2461 2434 1516 1988 1665 1566 1878 1981 1771 1173 1013 1016 959 1079 741 680 1510 1229 1216 1199 1480 1418 1658 1595
1476 1551 1798 2720 3040 2935 2770 2342 1994 1661 1629 1332 1312 2199 1195 1415 1030 2128 2118 2497 2455 2141 1961 1639 1838 1836 2067 1974 2425 1011 899 1458 1602 1160 926 1155 1070 1180 1290 1319 1497 1349 1329
CIN
-0 -1 -0 -0 -5 -4 -3 -1 -0 -0 -2 -0 -0 -3 -0 -1 -1 -0 -1 -0 -0 -0 -2 -0 -0 -0 -8 -2 -9 -12 -2 -1 -6 -0 -0 -0 -0 -0 -0 -0 -3 -26 -16
-7 -8 -0 -0 -0 -0 -0 -3 -0 -0 -0 -0 -0 -0 -0 -0 -0 -0 -0 -0 -0 -1 -2 -0 -0 -0 -0 -4 -1 -13 -6 -1 -0 -1 -1 -0 -0 -0 -3 -1 -3 -15 -14
-11 -11 -0 -0 -0 -0 -0 -2 -5 -0 -0 -0 -0 -3 -2 -0 -0 -0 -0 -0 -0 -1 -3 -6 -11 -10 -3 -1 -6 -2 -36 -4 -0 -2 -5 -0 -0 -0 -3 -0 -9 -10 -9
-7 -9 -11 -0 -0 -0 -0 -0 -0 -0 -0 -0 -0 -0 -0 -0 -0 -0 -0 -0 -4 -4 -8 -6 -10 -8 -8 -8 -7 -29 -95 -6 -4 -1 -0 -0 -0 -0 -0 -1 -2 -0 -0
-0 -12 -0 -0 -1 -0 -0 -3 -3 -0 -0 -0 -0 -0 -0 -0 -0 -0 -0 -0 -1 -4 -6 -6 -5 -4 -5 -5 -7 -11 -98 -15 -12 -9 -1 -0 -0 -0 -0 -0 -13 -0 -1
-0 -3 -5 -2 -5 -0 -0 -2 -10 -3 -5 -3 -2 -2 -3 -0 -0 -0 -7 -4 -4 -7 -7 -7 -7 -3 -5 -3 -5 -8 -17 -1 -9 -0 -12 -0 -0 -2 -0 -0 -1 -0 -0
-0 -0 -0 -0 -0 -0 -0 -1 -0 -0 -0 -1 -0 -0 -5 -0 -1 -2 -1 -2 -6 -5 -7 -7 -10 -5 -4 -2 -6 -8 -7 -5 -71 -19 -0 -0 -0 -0 -0 -0 -0 -0 -0
-0 -0 -0 -0 -0 -0 -0 -0 -0 -0 -0 -3 -3 -2 -1 -0 -0 -0 -1 -4 -5 -2 -3 -2 -3 -4 -0 -0 -3 -9 -7 -4 -4 -1 -9 -0 -45 -24 -31 -2 -0 -0 -0
-0 -0 -0 -0 -0 -0 -0 -0 -0 -0 -0 -2 -0 -0 -0 -0 -0 -0 -4 -0 -13 -18 -11 -16 -2 -1 -3 -1 -2 -7 -18 -11 -0 -0 -0 -0 -57 -30 -46 -50 -0 -0 -2
-0 -0 -0 -0 -0 -0 -0 -0 -0 -0 -1 -0 -0 -0 -0 -0 -0 -0 -4 -1 -3 -11 -13 -12 -11 -6 -2 -4 -3 -7 -11 -10 -0 -0 -0 -1 -81 -69 -39 -43 -12 -0 -0
-0 -0 -0 -0 -0 -0 -0 -0 -0 -0 -0 -0 -0 -0 -0 -0 -0 -4 -1 -4 -11 -26 -19 -8 -8 -6 -8 -10 -8 -6 -15 -0 -0 -0 -0 -160 -177 -111 -41 -31 -35 -0 -0
-0 -0 -0 -0 -0 -0 -0 -0 -0 -1 -0 -0 -0 -0 -0 -0 -0 -2 -3 -3 -22 -36 -34 -21 -14 -20 -24 -0 -0 -11 -0 -0 -0 -0 -0 -122 -168 -98 -24 -16 -11 -0 -0
-0 -0 -0 -0 -0 -0 -0 -0 -0 -1 -0 -0 -0 -0 -0 -0 -0 -0 -0 -0 -17 -8 -1 -3 -4 -1 -0 -0 -0 -0 -0 -0 -0 -0 -63 -45 -46 -34 -11 -1 -0 -0 -0
-7 -3 -4 -0 -0 -0 -0 -0 -0 -0 -0 -0 -0 -0 -0 -0 -0 -1 -0 -0 -15 -6 -0 -0 -0 -0 -0 -0 -0 -0 -0 -0 -0 -0 -43 -48 -9 -3 -0 -0 -0 -0 -0
-5 -0 -0 -0 -0 -0 -0 -0 -0 -0 -0 -2 -0 -0 -0 -0 -0 -0 -1 -0 -8 -0 -0 -0 -0 -0 -0 -0 -0 -0 -0 -0 -0 -0 -0 -44 -22 -0 -0 -0 -0 -0 -0
-1 -0 -0 -0 -0 -0 -0 -0 -0 -0 -0 -0 -0 -0 -7 -0 -0 -0 -1 -0 -1 -7 -21 -0 -0 -0 -0 -0 -0 -0 -0 -0 -0 -0 -0 -13 -23 -0 -1 -0 -0 -0 -0
-0 -0 -0 -0 -0 -0 -0 -0 -0 -0 -0 -0 -0 -0 -1 -0 -0 -0 -0 -0 -0 -0 -0 -0 -0 -0 -0 -0 -0 -0 -0 -7 -0 -0 -0 -0 -13 -21 -7 -2 -0 -0 -0
-0 -0 -0 -0 -0 -0 -0 -0 -0 -0 -0 -0 -0 -0 -0 -0 -7 -0 -0 -0 -0 -0 -0 -0 -0 -2 -0 -0 -0 -0 -0 -0 -2 -1 -0 -0 -0 -0 -33 -11 -2 -0 -4
-0 -0 -0 -1 -0 -0 -0 -0 -0 -0 -0 -0 -0 -0 -0 -0 -2 -0 -0 -0 -3 -0 -0 -0 -0 -3 -0 -0 -0 -0 -0 -0 -0 -0 -0 -0 -0 -0 -0 -58 -21 -5 -15
-0 -0 -0 -0 -0 -0 -0 -0 -1 -0 -0 -0 -0 -0 -0 -0 -3 -1 -0 -1 -7 -2 -4 -0 -7 -0 -0 -0 -0 -0 -0 -0 -0 -0 -0 -0 -0 -0 -3 -0 -4 -12 -36
-0 -0 -0 -0 -0 -0 -0 -0 -2 -13 -0 -0 -0 -0 -0 -0 -0 -2 -0 -1 -9 -6 -1 -1 -0 -46 -0 -0 -0 -0 -1 -0 -0 -0 -0 -0 -0 -0 -0 -0 -0 -0 -11
-4 -5 -0 -0 -2 -0 -0 -0 -0 -0 -0 -0 -0 -0 -0 -0 -0 -0 -2 -0 -0 -0 -1 -0 -0 -0 -0 -0 -2 -1 -0 -0 -0 -0 -0 -0 -0 -0 -0 -0 -0 -0 -0
-7 -18 -12 -7 -2 -7 -0 -3 -2 -1 -0 -0 -0 -0 -0 -7 -4 -4 -3 -1 -0 -1 -0 -0 -0 -0 -0 -0 -0 -0 -0 -0 -0 -0 -0 -0 -0 -0 -0 -0 -0 -0 -0
-13 -19 -23 -22 -1 -14 -6 -0 -1 -0 -0 -0 -0 -1 -0 -5 -4 -1 -2 -0 -0 -0 -0 -0 -0 -0 -0 -1 -0 -0 -2 -2 -0 -0 -0 -0 -0 -0 -0 -0 -0 -0 -0
-23 -16 -26 -33 -10 -1 -8 -2 -5 -0 -0 -1 -0 -0 -0 -0 -1 -0 -0 -0 -0 -0 -0 -0 -0 -0 -0 -0 -0 -0 -0 -0 -0 -0 -0 -1 -0 -0 -0 -0 -0 -0 -0
-51 -100 -56 -26 -22 -11 -5 -4 -0 -5 -0 -0 -0 -0 -0 -3 -7 -0 -1 -0 -0 -0 -0 -0 -0 -0 -0 -0 -0 -44 -8 -0 -0 -0 -0 -0 -0 -0 -0 -0 -0 -0 -0
Wind_Speed
13 16 11 12 12 12 12 11 13 14 15 14 13 13 12 11 10 8 8 8 8 6 6 8 8 8 11 10 10 11 12 12 12 12 12 13 13 14 13 13 15 17 15
18 17 13 13 13 13 11 11 12 15 14 14 13 12 11 10 9 7 7 7 6 6 4 5 6 5 8 9 8 9 10 10 10 10 11 10 11 14 11 6 14 16 15
18 18 16 12 12 13 12 12 12 13 13 13 12 12 10 8 8 7 6 4 6 5 5 4 4 5 6 7 8 9 6 4 9 8 9 9 11 12 13 12 14 14 14
18 17 16 12 12 13 13 13 12 13 13 13 12 10 9 8 8 7 6 5 4 4 3 4 3 2 5 5 7 11 1 4 7 7 9 4 12 10 14 13 12 13 13
16 15 16 14 13 14 13 13 12 11 12 11 11 9 8 7 7 6 6 6 6 5 5 4 4 4 3 3 3 12 5 9 7 8 2 3 6 12 12 13 12 12 12
16 16 17 14 13 14 13 12 12 11 10 9 8 7 7 6 6 5 3 3 3 3 2 3 4 5 4 2 3 3 13 9 6 8 6 5 3 13 12 9 11 9 10
16 14 16 12 12 13 13 12 11 10 10 9 8 8 7 5 4 3 3 3 2 1 1 1 2 3 2 1 3 2 6 8 6 3 6 10 12 11 10 10 9 10 9
14 14 16 13 12 12 12 12 11 10 9 9 8 6 7 5 4 3 4 5 5 3 1 1 2 3 3 2 3 2 4 6 8 10 9 6 16 9 9 7 9 9 10
14 13 13 14 12 11 11 12 11 9 8 7 7 6 5 5 5 4 4 5 6 3 5 5 3 4 4 4 3 2 3 6 6 5 7 7 15 11 8 9 7 9 10
13 12 11 12 13 10 12 10 9 8 9 7 7 6 6 5 5 6 5 5 7 4 4 4 1 3 4 4 4 4 5 5 10 5 7 1 12 13 12 10 10 10 10
10 12 14 13 11 11 11 10 10 8 6 7 7 7 8 9 10 8 3 8 6 4 2 2 2 2 4 7 6 5 6 3 8 4 4 11 7 13 15 12 12 10 10
15 14 11 12 14 10 7 10 7 5 6 7 6 6 7 3 2 1 5 6 8 9 9 6 5 5 9 6 9 9 5 5 5 3 2 9 9 13 14 12 12 11 11
15 12 11 10 10 10 7 7 6 5 5 6 5 6 7 3 5 6 3 5 5 7 4 9 11 8 4 2 4 3 5 5 3 4 10 8 9 12 12 12 12 12 11
15 14 13 12 9 9 6 6 5 6 5 5 7 6 3 5 3 0 4 4 3 4 5 3 4 2 5 4 5 5 6 3 4 2 9 7 8 11 12 12 12 12 11
14 14 13 11 10 9 7 7 6 6 7 8 5 7 4 4 5 4 4 4 3 3 4 4 4 3 4 5 5 6 6 5 4 3 3 11 9 11 11 13 13 13 12
13 13 13 13 12 10 9 7 4 4 6 6 6 6 7 6 4 4 5 4 4 4 4 4 4 4 5 4 6 6 6 6 5 3 5 9 10 10 9 9 10 11 11
13 12 12 12 12 11 11 9 7 7 7 6 6 6 7 6 4 5 2 3 3 2 4 5 5 5 5 4 5 5 6 6 6 6 6 5 12 13 12 11 10 9 11
13 13 12 10 12 12 10 8 6 6 5 6 6 7 8 6 5 4 2 3 2 3 3 3 3 2 4 3 2 5 6 6 8 7 7 5 5 9 13 14 12 11 11
15 14 14 13 12 12 12 9 7 7 5 7 6 6 8 7 6 6 3 2 3 2 1 3 1 4 4 5 5 5 5 6 8 9 8 7 6 5 5 17 13 10 11
15 14 13 12 12 11 7 9 4 6 5 6 7 7 6 6 6 5 3 1 4 2 2 2 3 3 5 3 4 2 4 6 7 7 7 7 8 7 7 5 9 11 14
15 15 15 14 13 10 9 9 5 8 6 7 7 7 7 7 7 5 5 3 3 4 3 3 3 2 5 4 3 3 2 7 9 8 7 7 8 8 8 6 6 6 10
16 16 15 16 15 13 9 8 7 8 8 9 7 8 8 7 6 6 5 4 2 2 3 4 3 3 5 3 2 3 4 5 7 9 8 8 8 8 8 9 9 7 7
16 16 15 15 14 12 12 7 3 5 6 5 7 8 8 8 8 7 6 6 3 5 3 2 3 4 4 3 5 4 3 2 1 8 9 8 9 8 8 7 7 8 8
15 14 14 15 14 13 14 10 12 8 9 8 8 9 8 9 9 8 8 6 6 5 3 3 4 6 2 4 3 4 5 6 3 3 5 7 8 9 9 7 7 9 9
11 14 15 15 14 14 14 14 9 9 7 5 7 10 9 7 7 9 8 7 6 7 3 4 4 4 5 6 3 2 3 5 5 6 4 5 5 8 8 8 8 7 10
14 8 13 15 16 16 15 14 12 12 9 8 9 7 7 5 6 9 9 7 6 5 6 6 5 5 5 4 6 1 7 1 4 5 6 6 4 4 7 8 8 7 7
Wind_Direction
161 137 163 151 143 133 130 134 138 141 146 142 136 134 133 131 119 121 132 143 148 138 95 104 111 105 92 85 93 98 96 99 108 109 112 109 115 109 104 119 131 108 111
147 145 161 151 149 136 131 125 134 144 150 151 143 143 144 143 132 129 139 142 165 164 134 110 132 128 107 107 100 98 102 108 119 123 122 115 118 117 118 112 82 109 114
143 140 160 155 147 137 136 130 131 142 144 150 149 152 161 161 155 161 161 157 189 189 179 155 167 159 128 133 121 107 75 110 130 141 159 158 119 125 121 103 113 119 117
143 147 150 149 139 140 144 137 134 134 142 145 148 155 158 160 159 173 179 189 237 263 264 246 220 185 155 157 154 134 3 198 149 149 208 140 133 135 127 129 128 127 129
146 146 130 147 152 147 150 140 138 140 144 149 152 159 157 162 171 184 188 212 237 251 263 281 273 265 252 202 210 162 170 225 163 190 160 192 154 129 133 134 141 143 168
148 161 129 155 160 156 155 149 146 148 149 151 155 161 167 176 181 191 183 205 236 264 253 238 236 236 240 225 202 190 176 202 166 171 138 200 198 138 144 156 139 127 124
154 149 150 163 166 160 158 159 154 156 159 159 163 173 186 188 189 187 161 143 125 145 250 261 213 227 225 183 174 189 161 172 153 180 184 182 124 147 145 149 151 156 142
152 153 150 162 165 162 168 167 165 167 173 171 175 185 188 185 192 172 146 148 140 152 183 168 199 221 168 143 166 183 201 203 207 166 211 189 115 158 153 159 166 167 167
167 153 156 167 168 170 175 177 177 177 182 174 183 192 198 189 191 181 170 189 150 116 106 64 194 197 160 165 173 198 176 194 238 212 207 203 141 184 196 189 189 181 182
163 152 168 169 175 176 176 188 181 185 192 180 195 193 193 194 210 194 195 190 131 112 104 115 102 202 185 191 205 211 225 227 246 215 220 143 145 186 204 205 200 200 189
175 174 173 174 175 182 172 164 181 189 190 199 193 196 195 226 174 151 164 134 167 172 138 114 65 238 197 194 190 203 220 209 237 219 229 107 165 197 201 197 203 210 200
179 189 181 176 165 181 181 153 192 166 182 211 189 187 232 224 256 353 150 194 206 212 228 229 237 249 226 193 163 188 217 216 208 175 99 125 176 190 191 202 206 205 208
178 186 185 184 162 184 178 185 174 163 206 178 191 209 253 203 207 189 242 203 196 217 220 214 197 216 225 247 206 244 159 184 175 199 98 146 184 198 201 201 206 205 207
181 186 189 178 178 196 175 200 192 166 198 222 173 220 193 225 219 90 252 254 155 222 229 253 237 230 243 197 234 259 196 228 186 178 124 166 188 196 199 201 206 203 207
184 186 185 185 181 190 200 196 206 199 184 212 170 194 224 230 228 275 265 260 234 252 213 189 215 218 210 222 199 208 235 185 185 182 161 163 196 204 208 199 199 197 199
192 186 185 191 182 192 204 205 191 225 202 205 192 189 215 249 252 245 249 211 178 204 248 265 204 229 222 231 205 205 214 200 188 229 192 158 185 204 207 196 199 201 204
194 188 197 195 187 194 203 203 212 194 200 203 210 198 217 231 220 286 235 301 231 254 256 222 209 218 250 208 214 184 201 195 210 200 217 199 163 193 206 210 212 210 212
197 195 199 199 194 189 199 206 194 240 206 205 201 195 208 224 249 239 164 266 349 229 280 248 209 157 227 228 207 221 198 198 199 195 219 217 216 181 189 201 206 209 214
196 191 198 196 201 190 196 204 201 217 218 214 202 210 188 214 222 263 266 34 247 225 275 312 241 239 181 218 205 211 220 218 199 198 207 213 220 235 221 173 193 206 218
195 200 202 195 203 195 186 208 191 228 199 241 204 214 200 216 221 237 249 307 253 220 255 288 319 309 293 287 252 203 243 203 206 210 206 214 214 223 234 210 185 200 203
203 200 200 199 193 197 193 195 180 209 200 193 215 214 213 232 205 218 253 201 231 248 271 256 233 207 276 245 299 219 219 240 207 213 211 219 214 214 224 225 235 252 185
202 206 205 208 193 201 190 207 205 196 213 200 201 191 221 212 208 211 243 231 222 236 236 244 237 248 247 227 236 238 206 209 214 219 218 223 219 219 221 221 241 239 266
201 201 202 209 201 197 217 180 192 191 205 186 209 202 207 216 220 226 225 250 229 265 248 238 240 265 305 251 270 278 284 324 183 182 213 226 217 222 230 219 223 226 232
202 198 201 204 201 197 200 191 188 211 202 195 195 206 205 208 217 218 210 221 230 258 324 240 228 298 287 293 187 232 295 344 297 204 201 207 205 224 230 248 223 217 227
208 196 193 193 194 198 192 199 188 200 201 213 213 193 215 191 227 204 200 211 227 234 222 277 272 255 265 279 275 223 235 242 223 285 282 172 201 219 224 222 245 220 212
184 195 195 189 192 191 199 193 191 203 221 193 204 173 200 193 216 215 204 219 231 252 241 235 258 259 276 298 318 136 272 272 270 239 248 263 282 229 216 209 232 233 232